TimeCDT,TemperatureF,Dew PointF,Humidity,Sea Level PressureIn,VisibilityMPH,Wind Direction,Wind SpeedMPH,Gust SpeedMPH,PrecipitationIn,Events,Conditions,WindDirDegrees,DateUTC
12:15 AM,76.1,54.5,47,30.06,10.0,ENE,12.7,-,N/A,,Clear,70,2013-06-30 05:15:00
12:35 AM,75.6,54.5,48,30.06,10.0,ENE,11.5,-,N/A,,Clear,70,2013-06-30 05:35:00
12:55 AM,74.1,55.4,52,30.07,10.0,ENE,9.2,-,N/A,,Clear,70,2013-06-30 05:55:00
1:15 AM,73.6,55.4,53,30.08,10.0,East,10.4,-,N/A,,Scattered Clouds,80,2013-06-30 06:15:00
1:35 AM,73.0,55.4,54,30.07,10.0,ENE,9.2,-,N/A,,Scattered Clouds,70,2013-06-30 06:35:00
1:55 AM,72.0,54.9,55,30.06,10.0,East,8.1,-,N/A,,Mostly Cloudy,80,2013-06-30 06:55:00
2:15 AM,71.4,54.5,55,30.08,10.0,East,4.6,-,N/A,,Scattered Clouds,80,2013-06-30 07:15:00
2:35 AM,70.5,54.7,57,30.11,10.0,North,5.8,-,N/A,,Mostly Cloudy,360,2013-06-30 07:35:00
2:55 AM,69.3,54.9,60,30.10,5.0,East,16.1,23.0,N/A,,Mostly Cloudy,80,2013-06-30 07:55:00
3:15 AM,65.7,56.8,73,30.12,10.0,East,9.2,-,N/A,,Scattered Clouds,100,2013-06-30 08:15:00
3:35 AM,64.4,57.6,78,30.14,10.0,NNE,15.0,21.9,N/A,,Mostly Cloudy,30,2013-06-30 08:35:00
3:55 AM,61.9,58.1,87,30.10,2.5,ESE,12.7,-,N/A,,Overcast,110,2013-06-30 08:55:00
4:15 AM,61.9,57.9,87,30.11,7.0,ESE,9.2,-,N/A,,Mostly Cloudy,120,2013-06-30 09:15:00
4:35 AM,62.4,57.9,85,30.10,10.0,ESE,8.1,-,N/A,,Scattered Clouds,110,2013-06-30 09:35:00
4:55 AM,62.6,58.1,85,30.10,10.0,East,5.8,-,N/A,,Scattered Clouds,100,2013-06-30 09:55:00
5:15 AM,62.8,57.9,84,30.10,10.0,ESE,4.6,-,N/A,,Scattered Clouds,120,2013-06-30 10:15:00
5:35 AM,62.2,58.1,86,30.10,10.0,ESE,3.5,-,N/A,,Scattered Clouds,120,2013-06-30 10:35:00
5:55 AM,62.6,58.1,85,30.10,10.0,SE,3.5,-,N/A,,Scattered Clouds,130,2013-06-30 10:55:00
6:15 AM,61.9,58.6,89,30.10,10.0,SE,3.5,-,N/A,,Scattered Clouds,130,2013-06-30 11:15:00
6:35 AM,62.1,58.1,87,30.11,10.0,Calm,Calm,-,N/A,,Clear,0,2013-06-30 11:35:00
6:55 AM,62.6,58.1,85,30.11,10.0,Calm,Calm,-,N/A,,Clear,0,2013-06-30 11:55:00
7:15 AM,63.0,58.3,85,30.11,10.0,NE,3.5,-,N/A,,Clear,50,2013-06-30 12:15:00
7:35 AM,63.5,57.9,82,30.12,10.0,Calm,Calm,-,N/A,,Clear,0,2013-06-30 12:35:00
7:55 AM,64.6,59.4,83,30.12,10.0,Calm,Calm,-,N/A,,Scattered Clouds,0,2013-06-30 12:55:00
8:15 AM,66.4,59.4,78,30.12,10.0,NNE,4.6,-,N/A,,Mostly Cloudy,30,2013-06-30 13:15:00
8:35 AM,69.3,56.1,63,30.12,10.0,NE,6.9,-,N/A,,Mostly Cloudy,50,2013-06-30 13:35:00
8:55 AM,70.2,55.4,59,30.13,10.0,ENE,8.1,-,N/A,,Scattered Clouds,60,2013-06-30 13:55:00
9:15 AM,70.3,55.2,59,30.14,10.0,NE,8.1,-,N/A,,Scattered Clouds,50,2013-06-30 14:15:00
9:35 AM,71.6,55.0,56,30.14,10.0,ENE,10.4,-,N/A,,Mostly Cloudy,60,2013-06-30 14:35:00
9:55 AM,72.0,53.6,52,30.15,10.0,ENE,8.1,-,N/A,,Overcast,60,2013-06-30 14:55:00
10:15 AM,72.5,54.7,53,30.16,10.0,NE,6.9,-,N/A,,Overcast,50,2013-06-30 15:15:00
10:35 AM,73.6,53.6,50,30.15,10.0,ENE,10.4,-,N/A,,Overcast,60,2013-06-30 15:35:00
10:55 AM,74.7,54.1,49,30.15,10.0,ENE,9.2,-,N/A,,Overcast,60,2013-06-30 15:55:00
11:15 AM,75.7,54.1,47,30.15,10.0,NNE,9.2,16.1,N/A,,Overcast,20,2013-06-30 16:15:00
11:35 AM,75.9,54.5,47,30.15,10.0,NE,8.1,-,N/A,,Overcast,40,2013-06-30 16:35:00
11:55 AM,77.2,54.7,46,30.15,10.0,ENE,10.4,-,N/A,,Scattered Clouds,60,2013-06-30 16:55:00
12:15 PM,77.2,52.9,43,30.14,10.0,NNE,4.6,-,N/A,,Clear,20,2013-06-30 17:15:00
12:35 PM,78.1,53.2,42,30.14,10.0,NE,12.7,16.1,N/A,,Scattered Clouds,40,2013-06-30 17:35:00
12:55 PM,78.8,52.2,39,30.12,10.0,ENE,13.8,-,N/A,,Scattered Clouds,60,2013-06-30 17:55:00
1:15 PM,80.2,52.3,38,30.12,10.0,NNE,10.4,16.1,N/A,,Clear,30,2013-06-30 18:15:00
1:35 PM,80.8,52.5,37,30.12,10.0,ENE,12.7,18.4,N/A,,Clear,60,2013-06-30 18:35:00
1:55 PM,81.3,52.0,36,30.11,10.0,ENE,10.4,20.7,N/A,,Clear,60,2013-06-30 18:55:00
2:15 PM,81.9,52.7,36,30.10,10.0,NE,11.5,-,N/A,,Clear,50,2013-06-30 19:15:00
2:35 PM,82.6,52.0,35,30.10,10.0,ENE,10.4,16.1,N/A,,Clear,60,2013-06-30 19:35:00
2:55 PM,83.7,51.6,33,30.09,10.0,ENE,10.4,16.1,N/A,,Clear,60,2013-06-30 19:55:00
3:15 PM,83.5,50.5,32,30.09,10.0,ENE,13.8,24.2,N/A,,Clear,60,2013-06-30 20:15:00
3:35 PM,82.9,50.5,32,30.09,10.0,NNE,9.2,19.6,N/A,,Clear,20,2013-06-30 20:35:00
3:55 PM,84.2,50.7,31,30.09,10.0,NE,13.8,-,N/A,,Clear,40,2013-06-30 20:55:00
4:15 PM,84.0,49.6,30,30.09,10.0,North,16.1,25.3,N/A,,Clear,10,2013-06-30 21:15:00
4:35 PM,82.8,49.1,31,30.09,10.0,North,11.5,20.7,N/A,,Clear,10,2013-06-30 21:35:00
4:55 PM,83.1,48.9,30,30.08,10.0,North,18.4,24.2,N/A,,Clear,10,2013-06-30 21:55:00
5:15 PM,82.0,48.4,31,30.09,10.0,NNE,12.7,20.7,N/A,,Scattered Clouds,20,2013-06-30 22:15:00
5:35 PM,82.6,47.8,30,30.09,10.0,North,15.0,25.3,N/A,,Mostly Cloudy,350,2013-06-30 22:35:00
5:55 PM,82.0,48.0,30,30.09,10.0,North,15.0,-,N/A,,Mostly Cloudy,350,2013-06-30 22:55:00
6:15 PM,81.7,48.4,31,30.08,10.0,North,13.8,-,N/A,,Mostly Cloudy,360,2013-06-30 23:15:00
6:35 PM,81.5,48.2,31,30.07,10.0,North,11.5,-,N/A,,Scattered Clouds,10,2013-06-30 23:35:00
6:55 PM,79.9,52.3,38,30.07,10.0,NW,16.1,20.7,N/A,,Scattered Clouds,320,2013-06-30 23:55:00
7:15 PM,78.3,54.9,44,30.07,10.0,NW,12.7,-,N/A,,Scattered Clouds,320,2013-07-01 00:15:00
7:35 PM,78.6,53.2,41,30.07,10.0,NNW,11.5,-,N/A,,Clear,330,2013-07-01 00:35:00
7:55 PM,78.1,53.2,42,30.07,10.0,NNW,8.1,-,N/A,,Clear,340,2013-07-01 00:55:00
8:15 PM,77.4,53.6,44,30.07,10.0,NNW,10.4,-,N/A,,Clear,330,2013-07-01 01:15:00
8:35 PM,75.9,54.3,47,30.08,10.0,NNW,9.2,-,N/A,,Clear,330,2013-07-01 01:35:00
8:55 PM,74.5,54.5,50,30.08,10.0,NNW,8.1,-,N/A,,Clear,340,2013-07-01 01:55:00
9:15 PM,73.4,54.7,52,30.09,10.0,NNW,5.8,-,N/A,,Clear,340,2013-07-01 02:15:00
9:35 PM,71.6,54.5,55,30.10,10.0,NW,6.9,-,N/A,,Clear,320,2013-07-01 02:35:00
9:55 PM,70.7,54.7,57,30.12,10.0,NNW,6.9,-,N/A,,Mostly Cloudy,330,2013-07-01 02:55:00
10:15 PM,70.2,55.4,59,30.13,10.0,NNE,5.8,-,N/A,,Scattered Clouds,20,2013-07-01 03:15:00
10:35 PM,70.0,52.7,54,30.14,10.0,ENE,5.8,-,N/A,,Scattered Clouds,70,2013-07-01 03:35:00
10:55 PM,71.2,51.8,50,30.15,10.0,ESE,5.8,-,N/A,,Mostly Cloudy,120,2013-07-01 03:55:00
11:15 PM,68.9,54.5,60,30.15,10.0,East,6.9,-,N/A,,Mostly Cloudy,80,2013-07-01 04:15:00
11:35 PM,67.8,54.0,61,30.16,10.0,East,5.8,-,N/A,,Scattered Clouds,80,2013-07-01 04:35:00
11:55 PM,66.7,53.6,63,30.16,10.0,ENE,3.5,-,N/A,,Clear,70,2013-07-01 04:55:00